When you browse on this site, cookies collect data to enhance your experience and personalize the content and advertising you see.
Visit our Privacy Policy to learn more. By continuing to use the site, you agree to this use of cookies and data.
  • In Romania
  • List of Countries
  • For 7 days
  • Water Temperature
  • Satellite Maps
  • Weather Map
  • Weather Widgets
  • user-avatar
    Login

    Hourly Weather Konstantyna

    Today, 17 January, Thursday

    Time Temperature Precipitation Wind Pressure Humidity
    00:00 +6°C° 0 mm 2 mps 710 mmHg 66%
    01:00 +6°C° 0 mm 2 mps 710 mmHg 69%
    02:00 +5°C° 0 mm 2 mps 710 mmHg 71%
    03:00 +5°C° 0 mm 2 mps 709 mmHg 74%
    04:00 +5°C° 0 mm 2 mps 709 mmHg 75%
    05:00 +4°C° 0 mm 2 mps 709 mmHg 76%
    06:00 +4°C° 0 mm 2 mps 709 mmHg 77%
    07:00 +6°C° 0 mm 2 mps 709 mmHg 71%
    08:00 +7°C° 0 mm 2 mps 709 mmHg 66%
    09:00 +8°C° 0 mm 2 mps 709 mmHg 60%
    10:00 +10°C° 0 mm 2 mps 709 mmHg 55%
    11:00 +12°C° 0 mm 2 mps 709 mmHg 50%
    12:00 +13°C° 0 mm 2 mps 709 mmHg 44%
    13:00 +13°C° 0 mm 2 mps 709 mmHg 44%
    14:00 +13°C° 0 mm 2 mps 709 mmHg 44%
    15:00 +13°C° 0 mm 2 mps 709 mmHg 43%
    16:00 +12°C° 0 mm 1 mps 708 mmHg 51%
    17:00 +10°C° 0 mm 1 mps 708 mmHg 59%
    18:00 +8°C° 0 mm 1 mps 708 mmHg 67%
    19:00 +8°C° 0 mm 1 mps 708 mmHg 70%
    20:00 +6°C° 0 mm 0 mps 708 mmHg 72%
    21:00 +6°C° 0 mm 0 mps 708 mmHg 75%
    22:00 +6°C° 0 mm 0 mps 708 mmHg 74%
    23:00 +6°C° 0 mm 1 mps 708 mmHg 74%

    Tomorrow, 18 January, Friday

    Time Temperature Precipitation Wind Pressure Humidity
    00:00 +6°C° 0 mm 1 mps 708 mmHg 73%
    01:00 +6°C° 0 mm 1 mps 708 mmHg 73%
    02:00 +6°C° 0 mm 1 mps 707 mmHg 73%
    03:00 +6°C° 0 mm 1 mps 707 mmHg 73%
    04:00 +6°C° 0 mm 1 mps 707 mmHg 73%
    05:00 +5°C° 0 mm 1 mps 707 mmHg 74%
    06:00 +5°C° 0 mm 1 mps 707 mmHg 74%
    07:00 +6°C° 0 mm 2 mps 708 mmHg 69%
    08:00 +7°C° 0 mm 2 mps 708 mmHg 64%
    09:00 +9°C° 0 mm 2 mps 709 mmHg 59%
    10:00 +10°C° 0 mm 2 mps 709 mmHg 55%
    11:00 +12°C° 0 mm 2 mps 709 mmHg 52%
    12:00 +13°C° 0 mm 2 mps 709 mmHg 49%
    13:00 +13°C° 0.1 mm 2 mps 709 mmHg 52%
    14:00 +13°C° 0.1 mm 2 mps 708 mmHg 54%
    15:00 +12°C° 0.1 mm 3 mps 708 mmHg 57%
    16:00 +10°C° 0.3 mm 2 mps 708 mmHg 68%
    17:00 +9°C° 0.3 mm 2 mps 708 mmHg 79%
    18:00 +7°C° 0.3 mm 2 mps 708 mmHg 90%
    19:00 +8°C° 0.2 mm 1 mps 709 mmHg 92%
    20:00 +8°C° 0.2 mm 1 mps 709 mmHg 94%
    21:00 +8°C° 0.2 mm 1 mps 709 mmHg 96%
    22:00 +7°C° 0.3 mm 1 mps 709 mmHg 96%
    23:00 +6°C° 0.3 mm 0 mps 709 mmHg 96%

    Day after tomorrow, 19 January, Saturday

    Time Temperature Precipitation Wind Pressure Humidity
    00:00 +5°C° 0.3 mm 0 mps 709 mmHg 96%
    01:00 +5°C° 0 mm 0 mps 709 mmHg 96%
    02:00 +5°C° 0 mm 0 mps 708 mmHg 95%
    03:00 +5°C° 0 mm 0 mps 708 mmHg 95%
    04:00 +4°C° 0 mm 0 mps 708 mmHg 94%
    05:00 +5°C° 0 mm 1 mps 708 mmHg 94%
    06:00 +5°C° 0 mm 1 mps 708 mmHg 93%
    07:00 +6°C° 0 mm 1 mps 708 mmHg 88%
    08:00 +8°C° 0 mm 1 mps 709 mmHg 83%
    09:00 +9°C° 0 mm 1 mps 709 mmHg 78%
    10:00 +10°C° 0.1 mm 1 mps 709 mmHg 73%
    11:00 +10°C° 0.1 mm 2 mps 709 mmHg 68%
    12:00 +10°C° 0.1 mm 2 mps 709 mmHg 62%
    13:00 +10°C° 0.1 mm 2 mps 708 mmHg 62%
    14:00 +10°C° 0.1 mm 3 mps 708 mmHg 61%
    15:00 +10°C° 0.1 mm 3 mps 708 mmHg 61%
    16:00 +9°C° 0 mm 2 mps 708 mmHg 68%
    17:00 +8°C° 0 mm 1 mps 708 mmHg 75%
    18:00 +7°C° 0 mm 1 mps 708 mmHg 82%
    19:00 +7°C° 0 mm 1 mps 708 mmHg 83%
    20:00 +6°C° 0 mm 1 mps 709 mmHg 85%
    21:00 +6°C° 0 mm 1 mps 709 mmHg 86%
    22:00 +6°C° 0 mm 1 mps 709 mmHg 85%
    23:00 +6°C° 0 mm 1 mps 708 mmHg 83%

    20 January, Sunday

    Time Temperature Precipitation Wind Pressure Humidity
    00:00 +5°C° 0 mm 2 mps 708 mmHg 82%
    01:00 +5°C° 0 mm 2 mps 708 mmHg 79%
    02:00 +4°C° 0 mm 2 mps 708 mmHg 76%
    03:00 +4°C° 0 mm 2 mps 707 mmHg 73%
    04:00 +4°C° 0 mm 2 mps 707 mmHg 72%
    05:00 +4°C° 0 mm 2 mps 707 mmHg 70%
    06:00 +4°C° 0 mm 2 mps 707 mmHg 69%
    07:00 +6°C° 0 mm 2 mps 707 mmHg 67%
    08:00 +7°C° 0 mm 2 mps 707 mmHg 65%
    09:00 +8°C° 0 mm 3 mps 707 mmHg 63%
    10:00 +10°C° 0 mm 3 mps 707 mmHg 60%
    11:00 +12°C° 0 mm 4 mps 707 mmHg 58%
    12:00 +13°C° 0 mm 5 mps 707 mmHg 56%
    13:00 +13°C° 0.1 mm 5 mps 707 mmHg 59%
    14:00 +12°C° 0.1 mm 5 mps 706 mmHg 62%
    15:00 +12°C° 0.1 mm 5 mps 706 mmHg 65%
    16:00 +11°C° 0.1 mm 4 mps 706 mmHg 71%
    17:00 +10°C° 0.1 mm 3 mps 706 mmHg 76%
    18:00 +9°C° 0.1 mm 2 mps 706 mmHg 81%
    19:00 +8°C° 0 mm 2 mps 706 mmHg 82%
    20:00 +8°C° 0 mm 2 mps 706 mmHg 83%
    21:00 +7°C° 0 mm 2 mps 706 mmHg 84%
    22:00 +7°C° 0 mm 2 mps 706 mmHg 85%
    23:00 +7°C° 0 mm 2 mps 706 mmHg 86%

    21 January, Monday

    Time Temperature Precipitation Wind Pressure Humidity
    00:00 +6°C° 0 mm 2 mps 706 mmHg 87%
    01:00 +6°C° 0 mm 2 mps 705 mmHg 88%
    02:00 +6°C° 0 mm 2 mps 705 mmHg 89%
    03:00 +6°C° 0 mm 2 mps 705 mmHg 90%
    04:00 +6°C° 0 mm 2 mps 705 mmHg 90%
    05:00 +5°C° 0 mm 2 mps 705 mmHg 90%
    06:00 +5°C° 0 mm 2 mps 705 mmHg 91%
    07:00 +5°C° 3.5 mm 2 mps 706 mmHg 93%
    08:00 +5°C° 3.5 mm 3 mps 707 mmHg 95%
    09:00 +5°C° 3.5 mm 4 mps 707 mmHg 97%
    10:00 +5°C° 0.6 mm 4 mps 708 mmHg 92%
    11:00 +6°C° 0.6 mm 5 mps 708 mmHg 88%
    12:00 +5°C° 0.6 mm 6 mps 708 mmHg 84%
    13:00 +5°C° 0.1 mm 6 mps 708 mmHg 82%
    14:00 +5°C° 0.1 mm 6 mps 708 mmHg 80%
    15:00 +5°C° 0.1 mm 6 mps 708 mmHg 79%
    16:00 +6°C° 0.1 mm 5 mps 708 mmHg 82%
    17:00 +5°C° 0.1 mm 4 mps 709 mmHg 85%
    18:00 +5°C° 0.1 mm 3 mps 709 mmHg 88%
    19:00 +4°C° 0.1 mm 3 mps 709 mmHg 89%
    20:00 +4°C° 0.1 mm 3 mps 709 mmHg 90%
    21:00 +4°C° 0.1 mm 3 mps 710 mmHg 90%
    22:00 +4°C° 0.1 mm 3 mps 709 mmHg 91%
    23:00 +5°C° 0.1 mm 2 mps 709 mmHg 91%

    22 January, Tuesday

    Time Temperature Precipitation Wind Pressure Humidity
    00:00 +4°C° 0.1 mm 2 mps 709 mmHg 92%
    01:00 +4°C° 0 mm 2 mps 709 mmHg 92%
    02:00 +3°C° 0 mm 2 mps 708 mmHg 93%
    03:00 +4°C° 0 mm 1 mps 708 mmHg 93%
    04:00 +3°C° 0 mm 2 mps 708 mmHg 93%
    05:00 +3°C° 0 mm 2 mps 708 mmHg 92%
    06:00 +2°C° 0 mm 2 mps 707 mmHg 92%
    07:00 +4°C° 0 mm 2 mps 707 mmHg 86%
    08:00 +4°C° 0 mm 3 mps 707 mmHg 81%
    09:00 +5°C° 0 mm 3 mps 707 mmHg 75%
    10:00 +7°C° 0 mm 4 mps 707 mmHg 68%
    11:00 +8°C° 0 mm 4 mps 706 mmHg 60%
    12:00 +9°C° 0 mm 5 mps 706 mmHg 53%
    13:00 +9°C° 0.1 mm 6 mps 705 mmHg 53%
    14:00 +9°C° 0.1 mm 6 mps 704 mmHg 53%
    15:00 +9°C° 0.1 mm 7 mps 703 mmHg 53%
    16:00 +8°C° 0 mm 6 mps 703 mmHg 56%
    17:00 +7°C° 0 mm 5 mps 702 mmHg 59%
    18:00 +5°C° 0 mm 4 mps 702 mmHg 62%
    19:00 +5°C° 0 mm 4 mps 701 mmHg 64%
    20:00 +5°C° 0 mm 4 mps 700 mmHg 66%
    21:00 +5°C° 0 mm 4 mps 699 mmHg 67%
    22:00 +5°C° 0.1 mm 4 mps 698 mmHg 69%
    23:00 +5°C° 0.1 mm 5 mps 697 mmHg 71%
    Show more